Home > Weather > Behbahan > Past weeks

Flag for Iran Past Weather in Behbahan, Iran — Yesterday and Last 2 Weeks

Now
81 °F

Clear.


Feels Like: 81 °F
Forecast: 76 / 114 °F
Wind: No wind

Location: Gach Saran Du Gunbadan

Current Time: Jul 26, 2016 at 7:13:04 AM

Latest Report: Jul 26, 2016 at 6:30 AM


Visibility: 5 mi

Pressure: 29.68 "Hg

Humidity: 51%

Dew Point: 61 °F

Location of BehbahanLocation

Past Weather in Behbahan — Graph

°F

Behbahan Temperature Yesterday

Maximum temperature yesterday: 106 °F (at 2:25 PM)
Minimum temperature yesterday: 79 °F (at 6:30 AM)
Average temperature yesterday: 94 °F

High & Low Weather Summary for the Past Weeks

 TemperatureHumidityPressure
High117 °F (Jul 14, 2:30 PM)49% (Jul 23, 5:30 AM)29.77 "Hg (Jul 23, 5:30 AM)
Low75 °F (Jul 13, 5:30 AM)3% (Jul 16, 12:30 PM)29.50 "Hg (Jul 23, 5:30 PM)
Average98 °F16%29.64 "Hg
* Reported Jul 11 5:30 AM — Jul 26 5:30 AM, Behbahan, Weather by CustomWeather, © 2016

Note: Actual official high and low records may vary slightly from our data, if they occured in-between our weather recording intervals... More about our weather records

Advertising

Behbahan Weather History for the Previous 24 Hours

Scroll right to see more
 ConditionsComfort  
Time TempWeatherWind HumidityBarometerVisibility
5:30 AM
Tue, Jul 26
82 °FClear.No wind48%29.68 "Hg4 mi
4:26 AM84 °FClear.No wind45%29.65 "Hg4 mi
3:30 AM84 °FClear.No wind45%29.68 "Hg4 mi
2:30 AM84 °FClear.No wind43%29.68 "Hg4 mi
1:30 AM86 °FClear.No wind40%29.68 "Hg4 mi
12:30 AM90 °FClear.No wind36%29.71 "Hg4 mi
11:30 PM
Mon, Jul 25
90 °FClear.No wind38%29.71 "Hg4 mi
10:30 PM91 °FClear.No wind34%29.71 "Hg4 mi
9:30 PM93 °FClear.5 mph34%29.71 "Hg4 mi
8:30 PM95 °FClear.7 mph34%29.71 "Hg4 mi
7:30 PM97 °FDuststorm.14 mph30%29.68 "Hg3 mi
6:30 PM100 °FClear.16 mph27%29.65 "Hg4 mi
5:30 PM102 °FClear.9 mph26%29.65 "Hg4 mi
4:30 PM106 °FClear.12 mph18%29.65 "Hg4 mi
3:25 PM106 °FClear.9 mph15%29.65 "Hg4 mi
2:25 PM106 °FClear.No wind15%29.68 "Hg4 mi
1:30 PM104 °FClear.5 mph17%29.68 "Hg4 mi
12:30 PM104 °FClear.9 mph19%29.71 "Hg4 mi
11:30 AM102 °FClear.9 mph21%29.71 "Hg5 mi
10:30 AM99 °FClear.9 mph21%29.71 "Hg5 mi
9:30 AM95 °FClear.9 mph22%29.71 "Hg5 mi
8:30 AM91 °FSunny.No wind26%29.71 "Hg10 mi
7:30 AM81 °FClear.No wind37%29.68 "Hg10 mi
Weather by CustomWeather, © 2016

See weather overviewHow to use our weather pages